Dewpoint
47 48 48 48 49 49 49 49 49 50 50 48 48 49 49 50 52 53 54 53 56 60 62 63 63 64 56 52 54 52 52 53 53 55 56 61 67 66 65 67 66 67 65
45 46 47 48 48 48 48 48 48 48 48 47 47 47 46 47 49 49 49 51 52 54 58 60 61 59 63 64 56 59 55 58 55 62 61 59 66 67 67 68 66 63 65
44 44 46 46 47 47 47 47 46 46 46 46 45 45 45 46 46 48 47 48 50 53 55 58 60 61 61 58 60 57 54 57 56 61 58 59 61 64 64 67 66 67 66
43 44 44 46 46 46 46 46 45 44 44 43 44 44 43 43 43 43 44 46 49 50 53 56 57 60 61 61 61 61 59 56 55 55 61 58 61 65 64 62 65 66 67
43 43 44 45 45 45 44 44 44 45 44 44 44 44 44 44 42 44 44 46 47 47 48 49 54 56 56 58 60 60 59 58 53 52 60 59 61 62 62 63 63 68 68
43 42 43 43 43 44 44 44 45 45 44 44 44 44 44 43 42 43 44 43 44 45 45 46 48 52 53 53 53 54 56 60 59 53 51 56 61 61 64 64 65 63 63
42 41 42 43 42 43 43 43 44 45 45 45 45 45 46 45 43 43 44 44 44 46 46 45 46 45 49 53 53 52 52 51 53 59 58 58 60 64 66 65 64 63 63
41 41 41 42 42 43 44 44 45 44 45 47 46 46 45 44 43 42 43 44 44 45 45 46 46 47 49 49 55 56 55 57 59 57 61 61 65 66 65 63 63 63 66
40 41 41 41 42 44 44 44 45 46 45 46 46 46 46 46 43 42 43 45 44 46 46 48 48 48 45 44 50 53 55 55 52 52 53 54 52 51 60 64 64 64 62
39 39 40 41 43 43 44 44 46 46 46 46 45 45 44 45 43 42 43 45 45 46 47 48 47 48 44 44 50 54 52 52 53 57 61 57 54 57 52 64 64 64 61
38 39 40 43 44 44 45 45 46 46 47 45 45 44 46 46 46 43 42 47 47 47 48 50 53 45 43 43 44 52 53 54 56 60 61 61 61 62 61 62 66 65 62
37 38 41 43 43 42 45 45 46 47 47 44 45 45 45 49 47 46 44 43 46 48 50 51 54 46 42 42 46 47 46 49 60 61 59 59 59 61 62 63 66 67 64
37 38 41 42 42 43 44 45 46 45 45 45 44 44 46 46 48 44 43 43 44 45 49 49 46 44 42 45 43 44 44 54 57 58 58 57 59 62 64 65 66 65 62
36 38 40 40 41 42 43 44 47 44 46 44 44 45 46 48 48 51 52 53 49 50 50 49 48 47 48 51 50 47 53 57 58 58 58 59 59 59 61 63 61 61 60
35 37 38 37 39 41 44 45 46 47 47 46 44 44 44 44 45 44 43 46 46 46 44 51 50 50 50 52 53 54 57 57 56 57 58 58 58 58 58 60 60 61 59
33 34 35 37 37 39 42 42 42 41 41 40 39 41 44 42 41 39 39 39 38 40 52 51 52 53 53 54 54 55 56 55 56 56 57 57 56 56 57 57 58 57 58
32 33 32 35 35 35 39 40 40 42 41 41 39 40 39 39 41 39 39 41 41 47 51 48 50 49 49 50 50 53 54 56 57 56 55 55 54 55 56 58 58 59 58
31 31 31 32 33 32 35 37 38 39 40 41 41 39 39 39 40 42 43 46 53 51 49 43 47 49 49 48 46 48 52 54 53 48 52 52 55 55 57 57 59 59 58
31 30 30 29 30 32 32 33 34 35 36 37 39 38 38 39 41 43 45 55 53 50 46 45 46 47 53 53 51 52 52 54 53 53 52 54 54 57 59 59 60 53 55
29 32 31 28 28 28 29 31 31 32 34 35 35 36 36 40 41 42 47 50 52 49 46 46 48 49 44 45 48 49 51 53 54 54 53 53 54 57 59 60 61 59 60
26 27 30 29 30 29 28 29 30 29 31 32 32 33 31 38 38 39 40 42 46 49 54 46 45 45 44 44 44 44 45 47 50 53 53 54 54 50 55 59 61 60 60
25 24 25 26 26 27 31 29 29 28 28 27 28 30 31 34 36 36 37 38 40 44 48 50 50 47 47 45 44 45 46 46 47 48 52 53 53 52 51 51 53 59 58
25 25 23 24 25 27 26 26 29 29 28 27 27 27 28 30 32 34 35 36 37 39 43 48 49 49 51 51 49 46 45 46 48 50 51 52 52 51 51 51 52 52 54
23 24 24 24 24 24 25 24 25 26 28 28 30 26 26 28 29 31 34 35 36 37 38 41 45 46 50 51 51 49 50 50 49 49 49 50 50 49 49 50 50 52 54
25 25 25 25 24 24 23 24 24 24 24 25 27 28 28 27 26 27 30 32 34 35 36 38 40 42 44 50 49 49 41 35 46 39 48 49 48 49 46 45 46 48 51
25 27 26 26 25 24 25 24 24 24 24 24 26 27 29 28 28 27 27 28 30 34 34 35 36 39 41 41 42 36 35 35 40 35 48 49 48 47 45 45 46 42 44
Lifted_Index
7 7 7 7 6 6 7 7 8 9 10 10 10 10 10 10 10 9 9 8 6 4 2 1 0 0 1 2 3 3 3 3 3 2 1 -0 -2 -3 -3 -4 -4 -4 -4
7 7 7 7 7 7 8 9 10 11 11 12 12 12 12 12 11 11 10 9 8 6 4 2 1 1 1 1 2 3 3 3 3 2 1 0 -1 -2 -3 -4 -4 -4 -4
6 7 7 8 8 9 10 11 12 13 13 14 14 14 14 14 14 13 13 12 10 8 6 4 3 2 1 1 1 2 3 3 3 2 2 1 -1 -2 -2 -3 -3 -3 -3
7 7 8 9 10 11 12 13 13 14 14 15 15 15 15 15 16 15 15 14 12 11 9 7 5 3 2 2 1 2 2 3 3 3 2 1 0 -1 -2 -3 -3 -3 -4
8 9 10 11 12 13 13 14 14 14 15 15 15 15 16 16 16 16 16 15 14 13 12 10 8 6 4 3 2 2 2 3 3 3 3 2 1 -1 -2 -3 -3 -4 -4
9 10 11 12 12 13 13 14 14 15 15 15 15 15 15 16 16 16 16 16 15 14 13 11 10 8 6 4 3 3 3 3 3 4 3 3 1 -1 -2 -3 -3 -3 -3
10 11 12 12 13 13 14 14 15 15 15 15 15 15 15 15 15 15 15 15 14 13 12 11 10 9 6 4 3 3 3 4 4 3 3 3 1 -1 -2 -3 -3 -3 -3
10 11 12 12 13 13 14 14 15 15 15 15 14 14 14 14 14 14 14 13 12 11 11 10 9 8 7 4 2 2 2 3 3 3 3 1 -0 -2 -2 -2 -2 -3 -3
10 11 12 12 13 13 13 14 15 15 15 15 14 13 12 12 12 12 12 11 10 9 9 8 7 7 6 4 2 1 1 2 3 3 2 1 -1 -1 -2 -2 -2 -2 -2
10 11 12 12 12 13 14 14 15 15 15 14 12 11 10 9 9 9 9 8 8 7 6 5 4 4 4 4 3 2 1 2 2 2 1 -0 -1 -1 -1 -1 -2 -2 -2
10 10 11 12 12 13 14 15 15 14 13 11 10 8 7 6 6 6 6 6 5 5 4 3 3 3 3 4 4 3 2 1 1 0 -0 -1 -1 -1 -1 -1 -2 -2 -1
9 10 11 11 12 13 14 14 14 12 11 9 7 6 5 4 4 3 4 4 3 3 3 2 2 2 3 4 4 3 2 1 0 -1 -1 -1 -1 -1 -1 -2 -2 -2 -1
9 10 11 11 12 13 14 13 12 11 9 7 6 5 4 3 3 3 3 3 3 3 2 2 2 2 3 3 3 3 2 1 -0 -1 -1 -1 -1 -1 -2 -2 -2 -1 -0
9 10 10 11 12 12 13 12 11 10 8 6 5 5 4 3 3 3 3 3 3 3 3 3 3 3 3 3 3 2 1 0 -1 -1 -1 -1 -1 -1 -1 -1 -1 -0 0
9 9 10 10 11 12 12 11 10 9 8 6 6 5 5 4 4 4 4 4 4 4 3 3 3 3 3 2 2 1 0 -0 -1 -1 -1 -0 0 0 0 0 1 1 1
9 9 10 10 10 11 11 10 10 9 8 7 7 6 6 5 5 5 5 5 5 4 4 4 3 3 2 1 1 1 0 0 0 0 0 1 1 2 2 2 2 1 1
10 10 10 10 10 10 11 10 10 9 8 8 8 7 6 6 6 6 6 5 5 5 5 4 4 3 3 2 2 2 2 1 2 2 2 2 2 2 2 2 1 0 -0
12 11 11 10 10 10 10 10 10 9 9 8 8 7 6 6 6 6 5 5 4 4 5 5 5 4 3 3 3 3 3 2 3 3 3 2 2 1 1 -0 -1 -1 -2
13 12 12 11 10 10 10 10 10 10 9 9 8 7 7 6 6 5 4 4 3 3 4 4 4 4 3 3 3 3 3 2 2 2 2 1 0 -0 -1 -2 -2 -3 -3
16 15 13 12 11 10 10 9 9 9 9 9 9 8 7 6 6 5 4 4 3 3 3 3 3 3 3 3 3 3 2 1 1 0 -0 -1 -1 -1 -2 -3 -3 -3 -3
18 18 16 15 13 12 11 10 10 9 9 9 9 9 8 7 6 5 4 4 4 4 3 3 3 3 3 3 3 3 2 1 0 -1 -1 -2 -2 -2 -2 -3 -3 -4 -4
20 20 19 18 17 15 13 12 11 10 9 9 9 10 9 8 7 6 5 4 4 4 4 3 3 2 2 2 3 3 2 1 0 -1 -1 -2 -2 -2 -2 -2 -2 -3 -3
20 20 20 20 19 18 17 16 14 13 11 10 10 10 10 9 8 7 6 6 5 5 4 4 3 2 2 2 2 2 2 1 1 0 -1 -1 -2 -1 -1 -1 -2 -2 -2
21 20 20 20 20 20 19 19 18 16 14 13 12 11 10 10 9 9 8 7 6 6 5 4 4 3 2 2 2 1 1 1 1 1 0 -0 -0 -0 -0 -1 -1 -2 -2
21 20 20 20 20 20 20 20 20 19 18 17 15 14 12 11 11 10 10 9 8 7 6 5 4 4 3 3 2 2 2 2 2 1 1 1 0 0 0 0 0 -0 -1
21 20 20 20 20 20 20 20 20 20 19 19 18 16 15 13 12 12 11 10 9 8 7 6 5 5 4 3 3 2 2 2 2 2 1 1 1 1 1 1 1 1 1